sat.trackr.live / text

‹ back to catalog

COSMOS 2492 (754)

NORAD 39620 · 2014-012A

PAYLOAD ACTIVE UNKNOWN

§ Identity

Operator
Country
CIS
Launch date
2014-03-23
Launch site
PLMSC
Launch vehicle
Mass (kg)
RCS (m²)
6.40

Purposes: nav

External: N2YO · Heavens-Above · Gunter

§ Orbital elements

Epoch: 2026-09-09T19:18:57.069216Z

Period
675.73 min
Inclination
65.2433°
Eccentricity
0.0011540
Mean motion
2.13103171 rev/d
Perigee alt
19,100.4 km
Apogee alt
19,159.2 km
Semi-major
25,507.9 km
B*
0.0000e+0
RAAN
311.0573°
Arg perigee
308.0025°
Mean anomaly
51.9721°
Rev number
9,704

§ Raw data

COSMOS 2492 (754)1 39620U 14012A   26252.80482719 -.00000030  00000+0  00000+0 0  99962 39620  65.2433 311.0573 0011540 308.0025  51.9721  2.13103171 97048

JSON: /api/v1/satellites/39620 · /tle

For live sub-satellite position, see the globe view (requires WebGL).

§ Visibility from observer

Set your observer location to see the next 7 days of passes ≥ 10°. The values pass through the URL so the page stays shareable.

No JS? Fill the form by hand. The geolocation button needs JavaScript.